This demonstration page uses our WeatherBlox Daily Observations layout. Learn more.

Left ArrowRight Arrow

Hourly Observations for December 27, 2020

Temp ( °F °C ) Dew Point ( °F °C ) Humidity (%) Winds ( mph kmh ) Pressure ( in mb ) Visibility ( mi km ) Precip ( " mm )
12:15 am 00:15 Clear 23 -5 23 -5 100 100 Calm 30.06 1018 10 16.0934 N/A
12:35 am 00:35 Clear 25 -4 23 -5 93 93 Calm 30.05 1018 10 16.0934 N/A
12:55 am 00:55 Clear 25 -4 25 -4 100 100 Calm 30.05 1018 10 16.0934 N/A
1:15 am 01:15 Clear 25 -4 25 -4 100 100 Calm 30.04 1017 10 16.0934 N/A
1:35 am 01:35 Clear 25 -4 23 -5 93 93 Calm 30.04 1017 10 16.0934 N/A
1:55 am 01:55 Clear 25 -4 25 -4 100 100 Calm 30.04 1017 10 16.0934 N/A
2:15 am 02:15 Clear 25 -4 25 -4 100 100 Calm 30.04 1017 10 16.0934 N/A
2:35 am 02:35 Clear 27 -3 25 -4 93 93 Calm 30.04 1017 10 16.0934 N/A
2:55 am 02:55 Clear 27 -3 25 -4 93 93 Calm 30.04 1017 10 16.0934 N/A
3:15 am 03:15 Clear 27 -3 25 -4 93 93 Calm 30.04 1017 10 16.0934 N/A
3:35 am 03:35 Clear 27 -3 25 -4 93 93 SE 6 9 30.04 1017 10 16.0934 N/A
3:55 am 03:55 Clear 27 -3 25 -4 93 93 Calm 30.04 1017 10 16.0934 N/A
4:15 am 04:15 Clear 27 -3 25 -4 93 93 Calm 30.03 1017 10 16.0934 N/A
4:35 am 04:35 Clear 27 -3 25 -4 93 93 Calm 30.02 1016 10 16.0934 N/A
4:55 am 04:55 Clear 27 -3 25 -4 93 93 Calm 30.02 1016 10 16.0934 N/A
5:15 am 05:15 Clear 27 -3 25 -4 93 93 Calm 30.02 1016 10 16.0934 N/A
5:35 am 05:35 Clear 28 -2 27 -3 93 93 SE 9 15 30.01 1016 10 16.0934 N/A
5:55 am 05:55 Clear 28 -2 27 -3 93 93 SSE 8 13 30 1016 10 16.0934 N/A
6:15 am 06:15 Clear 28 -2 27 -3 93 93 Calm 30.01 1016 10 16.0934 N/A
6:35 am 06:35 Clear 28 -2 27 -3 93 93 SSE 9 15 30.01 1016 10 16.0934 N/A
6:55 am 06:55 Clear 28 -2 28 -2 100 100 SSE 10 17 29.99 1016 10 16.0934 N/A
7:15 am 07:15 Clear 30 -1 28 -2 93 93 SSE 10 17 29.99 1016 10 16.0934 N/A
7:35 am 07:35 Clear 30 -1 28 -2 93 93 SSE 9 15 29.99 1016 10 16.0934 N/A
7:55 am 07:55 Clear 30 -1 28 -2 93 93 S 8 13 29.99 1016 10 16.0934 N/A
8:15 am 08:15 Sunny 30 -1 28 -2 93 93 SSE 9 15 29.99 1016 10 16.0934 N/A
8:35 am 08:35 Sunny 30 -1 30 -1 100 100 SSE 10 17 29.99 1016 10 16.0934 N/A
8:55 am 08:55 Sunny 32 0 30 -1 93 93 SSE 9 15 29.98 1015 10 16.0934 N/A
9:15 am 09:15 Sunny 34 1 32 0 93 93 SSE 13 20 29.96 1015 10 16.0934 N/A
9:35 am 09:35 Sunny 34 1 32 0 93 93 S 14 22 29.96 1015 10 16.0934 N/A
9:55 am 09:55 Sunny 34 1 32 0 93 93 S 14 22 29.97 1015 10 16.0934 N/A
10:15 am 10:15 Sunny 36 2 32 0 87 87 S 14 22 29.97 1015 10 16.0934 N/A
10:35 am 10:35 Sunny 37 3 34 1 87 87 S 10 17 29.97 1015 10 16.0934 N/A
10:55 am 10:55 Sunny 37 3 34 1 87 87 S 12 19 29.96 1015 10 16.0934 N/A
11:15 am 11:15 Sunny 39 4 36 2 87 87 S 13 20 29.95 1014 10 16.0934 N/A
11:35 am 11:35 Sunny 39 4 36 2 87 87 S 14 22 29.95 1014 10 16.0934 N/A
11:55 am 11:55 Sunny 41 5 36 2 81 81 S 14 22 29.93 1013 10 16.0934 N/A
12:15 pm 12:15 Partly Cloudy 41 5 36 2 81 81 S 13 20 29.92 1013 10 16.0934 N/A
12:35 pm 12:35 Sunny 43 6 37 3 81 81 S 9 15 29.89 1012 10 16.0934 N/A
12:55 pm 12:55 Partly Cloudy 45 7 37 3 76 76 S 15 24 29.88 1012 10 16.0934 N/A
1:15 pm 13:15 Partly Cloudy 45 7 37 3 76 76 S 14 22 29.87 1012 10 16.0934 N/A
1:35 pm 13:35 Partly Cloudy 46 8 39 4 76 76 S 15 24 29.86 1011 10 16.0934 N/A
1:55 pm 13:55 Partly Cloudy 48 9 39 4 71 71 S 10 17 29.84 1011 10 16.0934 N/A
2:15 pm 14:15 Sunny 46 8 39 4 76 76 S 13 20 29.84 1010 10 16.0934 N/A
2:35 pm 14:35 Sunny 46 8 41 5 82 82 S 12 19 29.83 1010 10 16.0934 N/A
2:55 pm 14:55 Partly Cloudy 48 9 39 4 71 71 S 15 24 29.81 1010 10 16.0934 N/A
3:15 pm 15:15 Mostly Cloudy 46 8 41 5 82 82 SSE 14 22 29.82 1010 10 16.0934 N/A
3:35 pm 15:35 Cloudy 46 8 41 5 82 82 SSE 14 22 29.81 1009 10 16.0934 N/A
3:55 pm 15:55 Cloudy 46 8 41 5 82 82 SSE 14 22 29.81 1009 10 16.0934 N/A
4:15 pm 16:15 Cloudy 46 8 41 5 82 82 S 14 22 29.81 1009 10 16.0934 N/A
4:35 pm 16:35 Cloudy 46 8 39 4 76 76 S 12 19 29.8 1009 10 16.0934 N/A
4:55 pm 16:55 Cloudy 46 8 39 4 76 76 SSE 10 17 29.79 1009 10 16.0934 N/A
5:15 pm 17:15 Cloudy 46 8 39 4 76 76 SSE 14 22 29.78 1008 10 16.0934 N/A
5:35 pm 17:35 Mostly Cloudy 46 8 39 4 76 76 SSE 15 24 29.78 1008 10 16.0934 N/A
5:55 pm 17:55 Cloudy 46 8 37 3 71 71 SSE 14 22 29.78 1008 10 16.0934 N/A
6:15 pm 18:15 Cloudy 46 8 37 3 71 71 SSE 14 22 29.77 1008 10 16.0934 N/A
6:35 pm 18:35 Cloudy 46 8 37 3 71 71 S 14 22 29.78 1008 10 16.0934 N/A
6:55 pm 18:55 Cloudy 46 8 37 3 71 71 SSE 14 22 29.78 1008 10 16.0934 N/A
7:15 pm 19:15 Cloudy 46 8 36 2 66 66 S 13 20 29.79 1009 10 16.0934 N/A
7:35 pm 19:35 Cloudy 46 8 37 3 71 71 S 14 22 29.8 1009 10 16.0934 N/A
7:55 pm 19:55 Cloudy 46 8 37 3 71 71 S 15 24 29.79 1009 10 16.0934 N/A
8:15 pm 20:15 Cloudy 46 8 37 3 71 71 SSW 18 30 29.8 1009 10 16.0934 N/A
8:35 pm 20:35 Cloudy 46 8 41 5 82 82 SSW 16 26 29.81 1009 7 11.26538 N/A
8:55 pm 20:55 Cloudy 46 8 45 7 93 93 SSW 18 30 29.81 1009 7 11.26538 N/A
9:15 pm 21:15 Cloudy 46 8 45 7 93 93 SSW 16 26 29.81 1009 10 16.0934 N/A
9:35 pm 21:35 Cloudy 48 9 45 7 87 87 SSW 16 26 29.8 1009 10 16.0934 N/A
9:55 pm 21:55 Cloudy 48 9 43 6 82 82 SSW 14 22 29.8 1009 10 16.0934 N/A
10:15 pm 22:15 Cloudy 46 8 43 6 87 87 SSW 14 22 29.81 1009 10 16.0934 N/A
10:35 pm 22:35 Cloudy 46 8 45 7 93 93 SSW 13 20 29.82 1010 10 16.0934 N/A
10:55 pm 22:55 Cloudy 48 9 45 7 87 87 SW 17 28 29.82 1010 10 16.0934 N/A
11:15 pm 23:15 Cloudy 48 9 46 8 94 94 SW 20 31 29.83 1010 10 16.0934 N/A
11:35 pm 23:35 Cloudy 48 9 46 8 94 94 SW 20 31 29.84 1011 10 16.0934 N/A
11:55 pm 23:55 Cloudy 48 9 46 8 94 94 SW 23 37 29.85 1011 10 16.0934 N/A

Powered by AerisWeather